Clarksville, TN

8:15 AM CDT on September 26, 2017 (GMT -0500)
Outlaw

Weather History for KCKV - April, 2012

Change the Weather History Date:

Thursday, April 12, 2012

  Actual Average Record
Temperature  
Mean Temperature 47 °F 56 °F  
Max Temperature 63 °F 69 °F 84 °F (1960)
Min Temperature 31 °F 44 °F 27 °F (1975)
Degree Days  
Heating Degree Days 18    
Month to date heating degree days 98  
Since 1 July heating degree days 2995  
Cooling Degree Days 0    
Month to date cooling degree days 25  
Year to date cooling degree days  
Moisture  
Dew Point 33 °F    
Average Humidity 62    
Maximum Humidity 92    
Minimum Humidity 32    
Precipitation  
Precipitation 0.00 in 0.12 in 2.40 in (1979)
Month to date precipitation 0.42 1.38  
Year to date precipitation 12.93  
Sea Level Pressure  
Sea Level Pressure 30.23 in    
Wind  
Wind Speed 2 mph (East)    
Max Wind Speed 12 mph    
Max Gust Speed 18 mph    
Visibility 10 miles    
Events      
T = Trace of Precipitation, MM = Missing Value Source: NWS Daily Summary

Daily Weather History Graph

Daily Weather History Graph

Search for Another Location

Airport or City:

Trip Planner

Search our weather history database for the weather conditions in past years. The results will help you decide how hot, cold, wet, or windy it might be!

Date:

Astronomy

Apr. 12, 2012 Rise Set
Actual Time 6:19 AM CDT 7:21 PM CDT
Civil Twilight 5:52 AM CDT 7:48 PM CDT
Nautical Twilight 5:21 AM CDT 8:19 PM CDT
Astronomical Twilight 4:48 AM CDT 8:52 PM CDT
Moon 1:03 AM CDT (4/12) 11:18 AM CDT (4/12)
Length of Visible Light 13h 55m
Length of Day
13h 02m
Waning Gibbous, 58% of the Moon is Illuminated
Apr 12
Waning Gibbous
Apr 13
Last Quarter
Apr 21
New
Apr 29
First Quarter
May 5
Full

Hourly Weather History & Observations

Time (CDT) Temp. Windchill Dew Point Humidity Pressure Visibility Wind Dir Wind Speed Gust Speed Precip Events Conditions
12:52 AM 37.9 °F - 32.0 °F 79% 30.26 in 10.0 mi Calm Calm - N/A   Clear
1:52 AM 35.1 °F - 32.0 °F 89% 30.26 in 10.0 mi Calm Calm - N/A   Clear
2:52 AM 34.0 °F - 30.9 °F 89% 30.25 in 10.0 mi Calm Calm - N/A   Clear
3:52 AM 35.1 °F - 30.0 °F 82% 30.25 in 10.0 mi Calm Calm - N/A   Clear
4:52 AM 34.0 °F - 30.0 °F 85% 30.25 in 10.0 mi Calm Calm - N/A   Clear
5:52 AM 33.1 °F 28.7 °F 30.0 °F 89% 30.29 in 10.0 mi WNW 4.6 mph - N/A   Clear
6:52 AM 32.0 °F - 30.0 °F 92% 30.30 in 9.0 mi Calm Calm - N/A   Clear
7:52 AM 39.0 °F - 34.0 °F 82% 30.30 in 10.0 mi Calm Calm - N/A   Clear
8:52 AM 46.9 °F - 34.0 °F 61% 30.32 in 10.0 mi Calm Calm - N/A   Clear
9:52 AM 51.1 °F - 32.0 °F 48% 30.33 in 10.0 mi Calm Calm - N/A   Clear
10:52 AM 54.0 °F - 30.0 °F 40% 30.31 in 10.0 mi Variable 6.9 mph - N/A   Clear
11:52 AM 55.0 °F - 30.9 °F 40% 30.27 in 10.0 mi ESE 9.2 mph - N/A   Clear
12:52 PM 55.9 °F - 30.0 °F 37% 30.25 in 10.0 mi Calm Calm - N/A   Clear
1:52 PM 57.9 °F - 30.9 °F 36% 30.22 in 10.0 mi ESE 5.8 mph - N/A   Clear
2:52 PM 61.0 °F - 32.0 °F 34% 30.19 in 10.0 mi Variable 4.6 mph - N/A   Clear
3:52 PM 62.1 °F - 32.0 °F 32% 30.17 in 10.0 mi Calm Calm - N/A   Clear
4:52 PM 61.0 °F - 30.9 °F 32% 30.15 in 10.0 mi ESE 4.6 mph - N/A   Clear
5:52 PM 61.0 °F - 34.0 °F 36% 30.14 in 10.0 mi ENE 4.6 mph - N/A   Clear
6:52 PM 57.9 °F - 34.0 °F 41% 30.15 in 10.0 mi Calm Calm - N/A   Clear
7:52 PM 53.1 °F - 36.0 °F 52% 30.14 in 10.0 mi Calm Calm - N/A   Clear
8:52 PM 48.9 °F - 36.0 °F 61% 30.16 in 10.0 mi Calm Calm - N/A   Clear
9:52 PM 46.9 °F - 36.0 °F 66% 30.17 in 10.0 mi Calm Calm - N/A   Clear
10:52 PM 45.0 °F - 37.9 °F 76% 30.17 in 10.0 mi Calm Calm - N/A   Clear
11:52 PM 44.1 °F - 37.9 °F 79% 30.17 in 10.0 mi Calm Calm - N/A   Clear